Flag for U.S.A. Weather past 2 weeks in Alexandria, Virginia, U.S.A.

Now
46 °F

Passing clouds.


Feels Like: 45 °F
Forecast: 40 / 65 °F
Wind: 3 mph from Southwest

Location: Reagan National Airport

Current Time: Oct 20, 2014 at 8:09:09 AM

Latest Report: Oct 20, 2014 at 6:52 AM


Visibility: 10 mi

Pressure: 30.13 "Hg

Humidity: 79%

Dew point: 40 °F

Location of AlexandriaLocation

Historic Weather in Alexandria — Graph

°F

Alexandria temperature yesterday

Maximum temperature yesterday: 62 °F (at 3:52 PM)
Minimum temperature yesterday: 51 °F (at 10:52 PM)
Average temperature yesterday: 56 °F

Past Weeks' High & Low Weather Summary

 TemperatureHumidityPressure
High81 °F (Oct 14, 3:52 PM)94% (Oct 13, 10:59 PM)30.30 "Hg (Oct 13, 10:59 PM)
Low45 °F (Oct 5, 6:52 AM)29% (Oct 9, 1:52 PM)29.64 "Hg (Oct 18, 4:52 AM)
Average64 °F64%29.99 "Hg
* Reported Oct 5 6:52 AM — Oct 20 6:52 AM, Alexandria, Weather by CustomWeather, © 2014

Note: Actual official high and low records may vary slightly from our data, if they occured in-between our weather recording intervals... More about our weather records

Advertising

Alexandria weather history for previous 24 hours

 ConditionsComfort  
Time TempWeatherWind HumidityBarometerVisibility
6:52 AM
Oct 20
46 °FPassing clouds.3 mph79%30.13 "Hg10 mi
5:52 AM47 °FPassing clouds.No wind74%30.12 "Hg10 mi
4:52 AM47 °FPassing clouds.No wind69%30.12 "Hg10 mi
3:52 AM48 °FPassing clouds.No wind68%30.11 "Hg10 mi
2:52 AM47 °FPassing clouds.3 mph71%30.12 "Hg10 mi
1:52 AM48 °FPassing clouds.6 mph68%30.11 "Hg10 mi
12:52 AM51 °FPassing clouds.No wind54%30.12 "Hg10 mi
10:52 PM
Oct 19
51 °FPassing clouds.5 mph56%30.13 "Hg10 mi
9:52 PM56 °FPartly cloudy.No wind40%30.11 "Hg10 mi
8:52 PM56 °FPassing clouds.5 mph40%30.10 "Hg10 mi
7:52 PM58 °FPassing clouds.8 mph36%30.09 "Hg10 mi
6:52 PM58 °FPartly sunny.6 mph36%30.07 "Hg10 mi
5:52 PM60 °FPartly sunny.15 mph31%30.06 "Hg10 mi
4:52 PM61 °FScattered clouds.15 mph31%30.05 "Hg10 mi
3:52 PM62 °FPassing clouds.14 mph29%30.04 "Hg10 mi
2:52 PM61 °FScattered clouds.14 mph30%30.04 "Hg10 mi
1:52 PM60 °FScattered clouds.13 mph32%30.06 "Hg10 mi
12:52 PM58 °FPassing clouds.20 mph35%30.08 "Hg10 mi
11:52 AM56 °FPassing clouds.14 mph39%30.08 "Hg10 mi
10:52 AM54 °FScattered clouds.18 mph40%30.08 "Hg10 mi
9:52 AM53 °FPartly sunny.15 mph43%30.07 "Hg10 mi
8:52 AM52 °FPartly sunny.20 mph49%30.05 "Hg10 mi
Weather by CustomWeather, © 2014

See weather overviewHow to use our weather pages